User: anonymous   Login
Location: La Fredeussais
(48.1780°N, 1.3980°W)
Time: 19:13:57
(UTC+00:00)
Language:

PRISM - Orbit

View from above orbital plane
View from above orbital plane
View from above satellite
View from above satellite

Ground track
Ground track

The orbit data is extracted from the following two-line orbital elements,

1 33493U 09002B   21294.45737861  .00001721  00000-0  15122-3 0  9997
2 33493  98.2037 263.1925 0013814 224.9283 135.0821 14.97970182693183
Epoch (UTC): 21 October 2021 10:58:37
Eccentricity: 0.0013814
inclination: 98.2037°
perigee height: 563 km
apogee height: 583 km
right ascension of ascending node: 263.1925°
argument of perigee: 224.9283°
revolutions per day: 14.97970182
mean anomaly at epoch: 135.0821°
orbit number at epoch: 69318

The dashed part of the orbit path shows where the satellite is in the earth's shadow,  

DLR